Regional Weather Roundup
Issued by NWS

Home | Current Version | Previous Version | Text Only | Print | Product List | Glossary Off
Versions: 1 2 3 4 5 6 7 8 9 10 11 12 13 14 15 16 17 18 19 20 21 22 23 24 25 26 27 28 29 30 31 32 33 34 35 36 37 38 39 40 41 42 43 44 45 46 47 48 49 50

000
ASUS43 KFSD 031902
RWRSD

WEATHER ROUNDUP FOR SOUTH DAKOTA
NATIONAL WEATHER SERVICE SIOUX FALLS SD
200 PM CDT WED JUN 03 2015

NOTE: "FAIR" INDICATES FEW OR NO CLOUDS BELOW 12,000 FEET WITH NO
SIGNIFICANT WEATHER AND/OR OBSTRUCTIONS TO VISIBILITY.


SDZ001>005-009-010-012>017-032000-
NORTHWEST AND NORTH CENTRAL SOUTH DAKOTA

CITY           SKY/WX    TMP DP  RH WIND       PRES   REMARKS
BUFFALO          N/A     62  49  62 N7        29.96F
FAITH            N/A     65  51  60 N9        29.99F
MOBRIDGE       SUNNY     68  50  52 NW13G22   29.95R
$$

SDZ012>016-024>037-041>051-057-063-072>074-032000-
SOUTHWEST AND SOUTH CENTRAL SOUTH DAKOTA

CITY           SKY/WX    TMP DP  RH WIND       PRES   REMARKS
RAPID CTY ARPT CLOUDY    62  53  72 NE10      30.02F
PIERRE         MOSUNNY   67  55  65 NW17      29.95F
CUSTER         SUNNY     67  47  48 VRB7      30.06F
ELLSWORTH AFB  CLOUDY    62  54  74 N7        30.02S
PHILIP         MOSUNNY   68  55  63 N9        29.98F
PINE RIDGE     SUNNY     69  54  58 VRB6      30.01F
WINNER         FAIR      72  57  59 NW15      29.95S
$$

SDZ004>011-016>023-039-040-032000-
NORTHEAST SOUTH DAKOTA

CITY           SKY/WX    TMP DP  RH WIND       PRES   REMARKS
ABERDEEN       CLOUDY    67  56  67 N14       29.91R
WATERTOWN      PTSUNNY   71  63  75 N8        29.88R
BROOKINGS      PTSUNNY   72  64  78 NW14      29.89R
SISSETON         N/A     67  59  75 N13       29.86R
$$

SDZ017-020-022-023-036>040-048>070-032000-
SOUTHEAST SOUTH DAKOTA

CITY           SKY/WX    TMP DP  RH WIND       PRES   REMARKS
SIOUX FALLS    MOSUNNY   76  63  64 W7        29.89R
HURON          PTSUNNY   72  60  66 NW16      29.89S
CHAMBERLAIN    MOSUNNY   70  59  69 N13G20    29.94S
MITCHELL       PTSUNNY   77  61  57 NW15      29.90R
YANKTON        PTSUNNY   77  63  61 N5        29.89S
$$

ABBREVIATIONS USED IN REMARKS
   TC - TEMPERATURE IN CELSIUS
  WCI - WIND CHILL INDEX
   HX - HEAT INDEX
  VSB - VISIBILITY



USA.gov is the U.S. government's official web portal to all federal, state and local government web resources and services.